| time (UTC) | temp F | wind direction | speed MPH | gust MPH | rain 1hr in | rain 24hr in | rain mn in | humidity % | barometer mb |
| 20260509153032 | 52 | 5 | 8.0 | 16.0 | 0.01 | 0.08 | 0.06 | 87 | 1008.5 |
| 20260509151530 | 52 | 349 | 7.0 | 15.0 | 0.01 | 0.08 | 0.06 | 87 | 1008.6 |
| 20260509150030 | 52 | 315 | 6.0 | 16.0 | 0.02 | 0.08 | 0.06 | 87 | 1008.6 |
| 20260509144527 | 51 | 20 | 6.0 | 15.0 | 0.02 | 0.08 | 0.06 | 87 | 1008.8 |
| 20260509143037 | 51 | 23 | 7.0 | 16.0 | 0.01 | 0.07 | 0.05 | 86 | 1008.8 |
| 20260509141529 | 51 | 321 | 6.0 | 16.0 | 0.02 | 0.07 | 0.05 | 86 | 1008.8 |
| 20260509140049 | 51 | 9 | 8.0 | 18.0 | 0.01 | 0.06 | 0.04 | 85 | 1008.9 |
| 20260509134528 | 51 | 333 | 7.0 | 18.0 | 0.01 | 0.06 | 0.04 | 84 | 1008.8 |
| 20260509133030 | 51 | 15 | 5.0 | 14.0 | 0.02 | 0.06 | 0.04 | 84 | 1008.8 |
| 20260509131539 | 51 | 332 | 1.0 | 13.0 | 0.01 | 0.05 | 0.03 | 83 | 1008.8 |
| 20260509130032 | 51 | 313 | 4.0 | 12.0 | 0.01 | 0.05 | 0.03 | 83 | 1009.0 |
| 20260509124529 | 51 | 336 | 3.0 | 9.0 | 0.01 | 0.05 | 0.03 | 83 | 1009.0 |
| 20260509123027 | 50 | 344 | 2.0 | 8.0 | 0.01 | 0.04 | 0.02 | 86 | 1009.2 |
| 20260509121541 | 49 | 38 | 1.0 | 9.0 | 0.01 | 0.04 | 0.02 | 91 | 1009.6 |
| 20260509120035 | 48 | 184 | 1.0 | 3.0 | 0.01 | 0.04 | 0.02 | 93 | 1009.8 |
| 20260509114532 | 48 | 222 | 0.0 | 3.0 | 0.01 | 0.04 | 0.02 | 93 | 1009.8 |
| 20260509113028 | 47 | 0 | 0.0 | 0.0 | 0.00 | 0.03 | 0.01 | 93 | 1010.0 |
| 20260509111528 | 47 | 0 | 0.0 | 3.0 | 0.00 | 0.03 | 0.01 | 93 | 1009.9 |
| 20260509110028 | 47 | 50 | 1.0 | 5.0 | 0.01 | 0.03 | 0.01 | 93 | 1009.9 |
| 20260509104528 | 47 | 36 | 2.0 | 4.0 | 0.01 | 0.03 | 0.01 | 92 | 1009.6 |
| 20260509103027 | 47 | 70 | 0.0 | 2.0 | 0.01 | 0.03 | 0.01 | 92 | 1009.4 |
| 20260509101528 | 47 | 0 | 0.0 | 1.0 | 0.01 | 0.03 | 0.01 | 91 | 1009.4 |
| 20260509100031 | 47 | 0 | 0.0 | 2.0 | 0.00 | 0.02 | 0.00 | 91 | 1009.4 |
| 20260509094529 | 47 | 0 | 0.0 | 5.0 | 0.00 | 0.02 | 0.00 | 91 | 1009.4 |
| 20260509093028 | 47 | 69 | 2.0 | 5.0 | 0.00 | 0.02 | 0.00 | 90 | 1009.5 |
| 20260509091530 | 47 | 71 | 0.0 | 2.0 | 0.00 | 0.02 | 0.00 | 90 | 1009.5 |
| 20260509090028 | 47 | 0 | 0.0 | 3.0 | 0.00 | 0.02 | 0.00 | 90 | 1009.1 |
| 20260509084535 | 47 | 192 | 2.0 | 12.0 | 0.00 | 0.02 | 0.00 | 90 | 1009.0 |
| 20260509083038 | 47 | 200 | 2.0 | 5.0 | 0.00 | 0.02 | 0.00 | 90 | 1009.1 |
| 20260509081530 | 47 | 0 | 1.0 | 4.0 | 0.00 | 0.02 | 0.00 | 90 | 1009.3 |
| 20260509080031 | 47 | 190 | 1.0 | 4.0 | 0.00 | 0.02 | 0.00 | 90 | 1009.4 |
| 20260509074528 | 47 | 265 | 1.0 | 7.0 | 0.00 | 0.02 | 0.00 | 90 | 1009.3 |
| 20260509073030 | 47 | 207 | 0.0 | 3.0 | 0.00 | 0.02 | 0.00 | 90 | 1009.4 |
| 20260509071529 | 47 | 0 | 0.0 | 4.0 | 0.00 | 0.02 | 0.00 | 90 | 1009.7 |
| 20260509070028 | 47 | 192 | 0.0 | 1.0 | 0.00 | 0.02 | 0.00 | 89 | 1009.7 |
| 20260509064531 | 47 | 0 | 0.0 | 1.0 | 0.00 | 0.02 | 0.00 | 89 | 1010.1 |
| 20260509063027 | 48 | 0 | 0.0 | 2.0 | 0.00 | 0.02 | 0.00 | 88 | 1010.3 |
| 20260509061533 | 48 | 192 | 0.0 | 4.0 | 0.00 | 0.02 | 0.00 | 88 | 1010.5 |
| 20260509060028 | 48 | 0 | 1.0 | 4.0 | 0.00 | 0.02 | 0.00 | 87 | 1010.7 |
| 20260509054529 | 48 | 228 | 0.0 | 2.0 | 0.00 | 0.02 | 0.00 | 86 | 1010.8 |
| 20260509053039 | 48 | 0 | 0.0 | 0.0 | 0.00 | 0.02 | 0.00 | 86 | 1010.9 |
| 20260509051529 | 49 | 0 | 0.0 | 1.0 | 0.00 | 0.02 | 0.00 | 86 | 1011.4 |
| 20260509050031 | 49 | 0 | 0.0 | 1.0 | 0.00 | 0.02 | 0.00 | 86 | 1011.5 |
| 20260509044528 | 49 | 0 | 0.0 | 2.0 | 0.00 | 0.02 | 0.00 | 86 | 1011.6 |
| 20260509043039 | 49 | 0 | 0.0 | 2.0 | 0.00 | 0.02 | 0.00 | 87 | 1011.4 |
| 20260509041536 | 49 | 0 | 0.0 | 0.0 | 0.00 | 0.02 | 0.00 | 86 | 1011.4 |
| 20260509040031 | 49 | 0 | 0.0 | 1.0 | 0.00 | 0.02 | 0.00 | 85 | 1011.4 |
| 20260509034528 | 49 | 0 | 0.0 | 1.0 | 0.00 | 0.02 | 0.02 | 84 | 1011.6 |
| 20260509033030 | 49 | 0 | 0.0 | 0.0 | 0.00 | 0.02 | 0.02 | 83 | 1011.3 |
| 20260509031531 | 49 | 0 | 0.0 | 2.0 | 0.00 | 0.02 | 0.02 | 83 | 1011.3 |
| 20260509030028 | 50 | 0 | 0.0 | 0.0 | 0.00 | 0.02 | 0.02 | 82 | 1011.4 |
| 20260509024528 | 50 | 0 | 0.0 | 2.0 | 0.00 | 0.02 | 0.02 | 81 | 1011.7 |
| 20260509023027 | 51 | 0 | 0.0 | 2.0 | 0.00 | 0.02 | 0.02 | 78 | 1011.6 |
| 20260509021528 | 52 | 0 | 0.0 | 2.0 | 0.00 | 0.02 | 0.02 | 76 | 1011.5 |
| 20260509020033 | 52 | 258 | 0.0 | 4.0 | 0.00 | 0.02 | 0.02 | 74 | 1011.2 |
| 20260509014528 | 53 | 0 | 0.0 | 8.0 | 0.00 | 0.02 | 0.02 | 72 | 1011.5 |
| 20260509013029 | 54 | 52 | 2.0 | 8.0 | 0.00 | 0.02 | 0.02 | 67 | 1011.6 |
| 20260509011531 | 54 | 49 | 3.0 | 6.0 | 0.00 | 0.02 | 0.02 | 66 | 1011.1 |
| 20260509010045 | 54 | 41 | 2.0 | 7.0 | 0.00 | 0.02 | 0.02 | 65 | 1010.8 |
| 20260509004529 | 54 | 46 | 1.0 | 6.0 | 0.00 | 0.02 | 0.02 | 65 | 1010.8 |
| 20260509003028 | 54 | 53 | 2.0 | 9.0 | 0.00 | 0.02 | 0.02 | 65 | 1010.7 |
| 20260509001531 | 55 | 89 | 4.0 | 9.0 | 0.00 | 0.02 | 0.02 | 65 | 1010.8 |
| 20260509000030 | 55 | 28 | 5.0 | 19.0 | 0.00 | 0.02 | 0.02 | 64 | 1010.7 |
| 20260508234529 | 55 | 45 | 4.0 | 11.0 | 0.00 | 0.02 | 0.02 | 66 | 1010.7 |
| 20260508233030 | 55 | 56 | 7.0 | 15.0 | 0.00 | 0.02 | 0.02 | 65 | 1010.6 |
| 20260508231529 | 55 | 46 | 7.0 | 19.0 | 0.00 | 0.02 | 0.02 | 65 | 1010.4 |
| 20260508230038 | 55 | 41 | 10.0 | 20.0 | 0.00 | 0.02 | 0.02 | 66 | 1010.0 |
| 20260508224536 | 55 | 70 | 7.0 | 14.0 | 0.00 | 0.02 | 0.02 | 68 | 1009.9 |
| 20260508223031 | 55 | 36 | 5.0 | 10.0 | 0.00 | 0.02 | 0.02 | 71 | 1010.0 |
| 20260508221541 | 55 | 10 | 3.0 | 7.0 | 0.00 | 0.02 | 0.02 | 73 | 1010.3 |
| 20260508220030 | 53 | 22 | 3.0 | 9.0 | 0.00 | 0.02 | 0.02 | 75 | 1010.5 |
| 20260508214530 | 53 | 80 | 3.0 | 7.0 | 0.00 | 0.02 | 0.02 | 73 | 1010.5 |
| 20260508213028 | 53 | 55 | 2.0 | 7.0 | 0.01 | 0.02 | 0.02 | 76 | 1010.3 |
| 20260508211530 | 51 | 13 | 3.0 | 9.0 | 0.01 | 0.02 | 0.02 | 77 | 1010.5 |
| 20260508210030 | 51 | 11 | 3.0 | 11.0 | 0.01 | 0.02 | 0.02 | 78 | 1010.7 |
| 20260508204529 | 53 | 53 | 8.0 | 24.0 | 0.01 | 0.02 | 0.02 | 72 | 1011.0 |
| 20260508203027 | 56 | 75 | 7.0 | 14.0 | 0.00 | 0.01 | 0.01 | 60 | 1010.4 |
| 20260508201528 | 56 | 30 | 1.0 | 4.0 | 0.00 | 0.01 | 0.01 | 62 | 1009.9 |
| 20260508200031 | 57 | 28 | 2.0 | 5.0 | 0.00 | 0.01 | 0.01 | 63 | 1010.3 |
| 20260508194529 | 56 | 355 | 2.0 | 4.0 | 0.00 | 0.01 | 0.01 | 61 | 1010.3 |
| 20260508193028 | 56 | 19 | 4.0 | 7.0 | 0.00 | 0.01 | 0.01 | 61 | 1010.5 |
| 20260508191530 | 56 | 45 | 2.0 | 5.0 | 0.00 | 0.01 | 0.01 | 57 | 1010.3 |
| 20260508190031 | 57 | 167 | 1.0 | 5.0 | 0.00 | 0.01 | 0.01 | 65 | 1010.4 |
| 20260508184534 | 55 | 136 | 5.0 | 15.0 | 0.00 | 0.01 | 0.01 | 64 | 1010.7 |
| 20260508183029 | 57 | 101 | 3.0 | 14.0 | 0.00 | 0.01 | 0.01 | 57 | 1010.7 |
| 20260508181528 | 57 | 33 | 5.0 | 12.0 | 0.01 | 0.01 | 0.01 | 56 | 1010.6 |
| 20260508180030 | 57 | 62 | 8.0 | 13.0 | 0.01 | 0.01 | 0.01 | 58 | 1010.9 |
| 20260508174536 | 56 | 166 | 6.0 | 11.0 | 0.01 | 0.01 | 0.01 | 63 | 1011.1 |
| 20260508173029 | 53 | 81 | 6.0 | 18.0 | 0.01 | 0.01 | 0.01 | 66 | 1011.1 |
| 20260508171531 | 56 | 55 | 9.0 | 16.0 | 0.00 | 0.00 | 0.00 | 51 | 1011.3 |
| 20260508170028 | 57 | 65 | 5.0 | 14.0 | 0.00 | 0.00 | 0.00 | 51 | 1011.0 |
| 20260508164534 | 56 | 54 | 6.0 | 19.0 | 0.00 | 0.00 | 0.00 | 52 | 1011.2 |
| 20260508163027 | 56 | 76 | 9.0 | 18.0 | 0.00 | 0.00 | 0.00 | 50 | 1011.2 |
| 20260508161526 | 56 | 53 | 9.0 | 23.0 | 0.00 | 0.00 | 0.00 | 51 | 1011.2 |
| 20260508160033 | 57 | 54 | 9.0 | 16.0 | 0.00 | 0.00 | 0.00 | 51 | 1011.3 |
| 20260508154531 | 58 | 59 | 10.0 | 24.0 | 0.00 | 0.00 | 0.00 | 55 | 1011.3 |